Time,TemperatureF,DewpointF,PressureIn,WindDirection,WindDirectionDegrees,WindSpeedMPH,WindSpeedGustMPH,Humidity,HourlyPrecipIn,Conditions,Clouds,dailyrainin,SolarRadiationWatts/m^2,SoftwareType,DateUTC
2013-02-07 00:00:00,18.5,10.4,30.38,WNW,295,0.0,4.0,70,0.00,,,0.00,0.0,meteohub,2013-02-07 05:00:00,
2013-02-07 00:01:00,18.5,10.4,30.38,WNW,292,1.0,4.0,70,0.00,,,0.00,0.0,meteohub,2013-02-07 05:01:00,
2013-02-07 00:02:00,18.5,10.4,30.38,WNW,292,0.0,4.0,70,0.00,,,0.00,0.0,meteohub,2013-02-07 05:02:00,
2013-02-07 00:07:00,18.5,10.4,30.38,WSW,242,0.0,4.0,70,0.00,,,0.00,0.0,meteohub,2013-02-07 05:07:00,
2013-02-07 00:13:00,18.3,10.2,30.38,WNW,288,0.0,4.0,70,0.00,,,0.00,0.0,meteohub,2013-02-07 05:13:00,
2013-02-07 00:18:00,18.3,10.2,30.38,WNW,288,0.0,4.0,70,0.00,,,0.00,0.0,meteohub,2013-02-07 05:18:00,
2013-02-07 00:23:00,18.3,10.6,30.38,NE,45,0.0,3.0,71,0.00,,,0.00,0.0,meteohub,2013-02-07 05:23:00,
2013-02-07 00:29:00,18.3,10.6,30.38,North,350,0.0,3.0,71,0.00,,,0.00,0.0,meteohub,2013-02-07 05:29:00,
2013-02-07 00:34:00,18.3,10.6,30.38,North,350,0.0,3.0,71,0.00,,,0.00,0.0,meteohub,2013-02-07 05:34:00,
2013-02-07 00:40:00,18.1,10.4,30.39,North,350,0.0,3.0,71,0.00,,,0.00,0.0,meteohub,2013-02-07 05:40:00,
2013-02-07 00:45:00,18.1,10.4,30.39,North,350,0.0,3.0,71,0.00,,,0.00,0.0,meteohub,2013-02-07 05:45:00,
2013-02-07 00:50:00,18.1,10.4,30.39,North,350,0.0,1.0,71,0.00,,,0.00,0.0,meteohub,2013-02-07 05:50:00,
2013-02-07 00:56:00,18.0,10.2,30.39,North,350,0.0,0.0,71,0.00,,,0.00,0.0,meteohub,2013-02-07 05:56:00,
2013-02-07 01:01:00,17.8,10.0,30.39,North,350,0.0,0.0,71,0.00,,,0.00,0.0,meteohub,2013-02-07 06:01:00,
2013-02-07 01:06:00,17.6,9.9,30.39,North,350,0.0,0.0,71,0.00,,,0.00,0.0,meteohub,2013-02-07 06:06:00,
2013-02-07 01:12:00,17.4,9.7,30.39,North,350,0.0,0.0,71,0.00,,,0.00,0.0,meteohub,2013-02-07 06:12:00,
2013-02-07 01:17:00,17.2,9.5,30.38,North,350,0.0,0.0,71,0.00,,,0.00,0.0,meteohub,2013-02-07 06:17:00,
2013-02-07 01:22:00,17.1,9.3,30.38,North,350,0.0,0.0,71,0.00,,,0.00,0.0,meteohub,2013-02-07 06:22:00,
2013-02-07 01:27:00,16.9,9.1,30.38,North,350,0.0,1.0,71,0.00,,,0.00,0.0,meteohub,2013-02-07 06:27:00,
2013-02-07 01:32:00,16.5,9.1,30.38,North,350,0.0,1.0,72,0.00,,,0.00,0.0,meteohub,2013-02-07 06:32:00,
2013-02-07 01:38:00,16.3,9.0,30.38,North,350,0.0,1.0,72,0.00,,,0.00,0.0,meteohub,2013-02-07 06:38:00,
2013-02-07 01:43:00,16.2,9.0,30.38,North,350,0.0,1.0,73,0.00,,,0.00,0.0,meteohub,2013-02-07 06:43:00,
2013-02-07 01:48:00,16.2,9.0,30.38,North,350,0.0,0.0,73,0.00,,,0.00,0.0,meteohub,2013-02-07 06:48:00,
2013-02-07 01:54:00,16.0,8.8,30.38,North,350,0.0,0.0,73,0.00,,,0.00,0.0,meteohub,2013-02-07 06:54:00,
2013-02-07 01:59:00,16.0,9.1,30.38,North,350,0.0,0.0,74,0.00,,,0.00,0.0,meteohub,2013-02-07 06:59:00,
2013-02-07 02:04:00,15.6,8.8,30.38,North,350,0.0,0.0,74,0.00,,,0.00,0.0,meteohub,2013-02-07 07:04:00,
2013-02-07 02:09:00,15.6,8.8,30.38,North,350,0.0,0.0,74,0.00,,,0.00,0.0,meteohub,2013-02-07 07:09:00,
2013-02-07 02:15:00,15.4,8.6,30.38,North,350,0.0,0.0,74,0.00,,,0.00,0.0,meteohub,2013-02-07 07:15:00,
2013-02-07 02:20:00,15.3,8.8,30.38,North,350,0.0,0.0,75,0.00,,,0.00,0.0,meteohub,2013-02-07 07:20:00,
2013-02-07 02:25:00,15.1,8.6,30.39,North,350,0.0,0.0,75,0.00,,,0.00,0.0,meteohub,2013-02-07 07:25:00,
2013-02-07 02:31:00,15.1,8.6,30.39,North,350,0.0,0.0,75,0.00,,,0.00,0.0,meteohub,2013-02-07 07:31:00,
2013-02-07 02:36:00,14.9,8.4,30.40,North,350,0.0,0.0,75,0.00,,,0.00,0.0,meteohub,2013-02-07 07:36:00,
2013-02-07 02:41:00,14.7,8.2,30.40,North,350,0.0,0.0,75,0.00,,,0.00,0.0,meteohub,2013-02-07 07:41:00,
2013-02-07 02:47:00,14.5,8.4,30.39,North,350,0.0,1.0,76,0.00,,,0.00,0.0,meteohub,2013-02-07 07:47:00,
2013-02-07 02:52:00,14.5,8.4,30.39,North,350,0.0,1.0,76,0.00,,,0.00,0.0,meteohub,2013-02-07 07:52:00,
2013-02-07 02:57:00,14.4,8.2,30.40,North,350,0.0,1.0,76,0.00,,,0.00,0.0,meteohub,2013-02-07 07:57:00,
2013-02-07 03:02:00,14.4,8.4,30.40,WNW,287,0.0,2.0,77,0.00,,,0.00,0.0,meteohub,2013-02-07 08:02:00,
2013-02-07 03:07:00,14.4,8.4,30.40,WNW,287,0.0,2.0,77,0.00,,,0.00,0.0,meteohub,2013-02-07 08:07:00,
2013-02-07 03:12:00,14.4,8.4,30.40,WNW,287,0.0,2.0,77,0.00,,,0.00,0.0,meteohub,2013-02-07 08:12:00,
2013-02-07 03:17:00,14.2,8.6,30.41,WNW,287,0.0,0.0,78,0.00,,,0.00,0.0,meteohub,2013-02-07 08:17:00,
2013-02-07 03:22:00,14.2,8.6,30.42,WNW,287,0.0,0.0,78,0.00,,,0.00,0.0,meteohub,2013-02-07 08:22:00,
2013-02-07 03:27:00,14.2,8.6,30.43,WNW,287,0.0,0.0,78,0.00,,,0.00,0.0,meteohub,2013-02-07 08:27:00,
2013-02-07 03:32:00,14.2,8.6,30.42,WNW,287,0.0,0.0,78,0.00,,,0.00,0.0,meteohub,2013-02-07 08:32:00,
2013-02-07 03:37:00,14.0,8.8,30.42,WNW,287,0.0,0.0,79,0.00,,,0.00,0.0,meteohub,2013-02-07 08:37:00,
2013-02-07 03:42:00,14.0,8.8,30.42,WNW,287,0.0,0.0,79,0.00,,,0.00,0.0,meteohub,2013-02-07 08:42:00,
2013-02-07 03:47:00,14.0,8.8,30.42,WNW,287,0.0,0.0,79,0.00,,,0.00,0.0,meteohub,2013-02-07 08:47:00,
2013-02-07 03:52:00,13.8,8.6,30.42,WNW,287,0.0,0.0,79,0.00,,,0.00,0.0,meteohub,2013-02-07 08:52:00,
2013-02-07 03:57:00,13.8,8.6,30.42,WNW,287,0.0,0.0,79,0.00,,,0.00,0.0,meteohub,2013-02-07 08:57:00,
2013-02-07 04:02:00,13.8,8.6,30.42,WNW,287,0.0,0.0,79,0.00,,,0.00,0.0,meteohub,2013-02-07 09:02:00,
2013-02-07 04:07:00,13.6,8.4,30.42,WNW,287,0.0,0.0,79,0.00,,,0.00,0.0,meteohub,2013-02-07 09:07:00,
2013-02-07 04:12:00,13.6,8.4,30.42,WNW,287,0.0,1.0,79,0.00,,,0.00,0.0,meteohub,2013-02-07 09:12:00,
2013-02-07 04:17:00,13.6,8.6,30.42,WNW,287,0.0,1.0,80,0.00,,,0.00,0.0,meteohub,2013-02-07 09:17:00,
2013-02-07 04:22:00,13.5,8.4,30.42,WNW,287,0.0,1.0,80,0.00,,,0.00,0.0,meteohub,2013-02-07 09:22:00,
2013-02-07 04:27:00,13.5,8.4,30.43,WNW,287,0.0,1.0,80,0.00,,,0.00,0.0,meteohub,2013-02-07 09:27:00,
2013-02-07 04:33:00,13.5,8.4,30.43,WNW,287,0.0,1.0,80,0.00,,,0.00,0.0,meteohub,2013-02-07 09:33:00,
2013-02-07 04:38:00,13.5,8.4,30.43,WNW,287,0.0,1.0,80,0.00,,,0.00,0.0,meteohub,2013-02-07 09:38:00,
2013-02-07 04:43:00,13.5,8.4,30.43,WNW,287,0.0,0.0,80,0.00,,,0.00,0.0,meteohub,2013-02-07 09:43:00,
2013-02-07 04:49:00,13.5,8.4,30.43,WNW,287,0.0,0.0,80,0.00,,,0.00,0.0,meteohub,2013-02-07 09:49:00,
2013-02-07 04:54:00,13.6,8.6,30.43,WNW,287,0.0,0.0,80,0.00,,,0.00,0.0,meteohub,2013-02-07 09:54:00,
2013-02-07 04:59:00,13.6,8.6,30.43,WNW,287,0.0,0.0,80,0.00,,,0.00,0.0,meteohub,2013-02-07 09:59:00,
2013-02-07 05:04:00,13.6,9.0,30.43,WNW,287,0.0,0.0,81,0.00,,,0.00,0.0,meteohub,2013-02-07 10:04:00,
2013-02-07 05:10:00,13.6,9.0,30.43,WNW,287,0.0,0.0,81,0.00,,,0.00,0.0,meteohub,2013-02-07 10:10:00,
2013-02-07 05:15:00,13.8,9.1,30.44,WNW,287,0.0,0.0,81,0.00,,,0.00,0.0,meteohub,2013-02-07 10:15:00,
2013-02-07 05:20:00,13.8,9.1,30.44,WNW,287,0.0,0.0,81,0.00,,,0.00,0.0,meteohub,2013-02-07 10:20:00,
2013-02-07 05:25:00,13.8,9.1,30.44,WNW,287,0.0,0.0,81,0.00,,,0.00,0.0,meteohub,2013-02-07 10:25:00,
2013-02-07 05:31:00,14.0,9.0,30.44,WNW,287,0.0,0.0,80,0.00,,,0.00,0.0,meteohub,2013-02-07 10:31:00,
2013-02-07 05:36:00,14.2,9.1,30.44,WNW,287,0.0,0.0,80,0.00,,,0.00,0.0,meteohub,2013-02-07 10:36:00,
2013-02-07 05:41:00,14.0,9.0,30.45,WNW,287,0.0,0.0,80,0.00,,,0.00,0.0,meteohub,2013-02-07 10:41:00,
2013-02-07 05:47:00,13.8,8.6,30.45,WNW,287,0.0,0.0,79,0.00,,,0.00,0.0,meteohub,2013-02-07 10:47:00,
2013-02-07 05:52:00,13.8,8.6,30.45,WNW,287,0.0,0.0,79,0.00,,,0.00,0.0,meteohub,2013-02-07 10:52:00,
2013-02-07 05:57:00,13.6,8.4,30.45,WNW,287,0.0,0.0,79,0.00,,,0.00,0.0,meteohub,2013-02-07 10:57:00,
2013-02-07 06:02:00,13.5,8.2,30.46,WNW,287,0.0,0.0,79,0.00,,,0.00,0.0,meteohub,2013-02-07 11:02:00,
2013-02-07 06:07:00,13.5,8.2,30.46,WNW,287,0.0,0.0,79,0.00,,,0.00,0.0,meteohub,2013-02-07 11:07:00,
2013-02-07 06:12:00,13.5,8.2,30.47,WNW,287,0.0,0.0,79,0.00,,,0.00,0.0,meteohub,2013-02-07 11:12:00,
2013-02-07 06:17:00,13.3,8.1,30.47,WNW,287,0.0,0.0,79,0.00,,,0.00,0.0,meteohub,2013-02-07 11:17:00,
2013-02-07 06:22:00,13.3,8.1,30.47,WNW,287,0.0,0.0,79,0.00,,,0.00,0.0,meteohub,2013-02-07 11:22:00,
2013-02-07 06:27:00,13.3,8.1,30.48,WNW,287,0.0,0.0,79,0.00,,,0.00,0.0,meteohub,2013-02-07 11:27:00,
2013-02-07 06:32:00,13.1,7.9,30.48,WNW,287,0.0,0.0,79,0.00,,,0.00,0.0,meteohub,2013-02-07 11:32:00,
2013-02-07 06:37:00,12.9,7.7,30.49,WNW,287,0.0,0.0,79,0.00,,,0.00,0.0,meteohub,2013-02-07 11:37:00,
2013-02-07 06:42:00,12.9,7.7,30.49,WNW,287,0.0,0.0,79,0.00,,,0.00,0.0,meteohub,2013-02-07 11:42:00,
2013-02-07 06:47:00,12.9,7.7,30.49,WNW,287,0.0,0.0,79,0.00,,,0.00,0.0,meteohub,2013-02-07 11:47:00,
2013-02-07 06:53:00,12.9,7.7,30.50,WNW,287,0.0,0.0,79,0.00,,,0.00,0.0,meteohub,2013-02-07 11:53:00,
2013-02-07 06:58:00,12.7,7.5,30.51,WNW,287,0.0,0.0,79,0.00,,,0.00,0.0,meteohub,2013-02-07 11:58:00,
2013-02-07 07:04:00,12.7,7.5,30.51,WNW,287,0.0,0.0,79,0.00,,,0.00,0.0,meteohub,2013-02-07 12:04:00,
2013-02-07 07:09:00,12.7,7.5,30.51,WNW,287,0.0,0.0,79,0.00,,,0.00,5.0,meteohub,2013-02-07 12:09:00,
2013-02-07 07:14:00,12.7,7.5,30.51,WNW,287,0.0,1.0,79,0.00,,,0.00,7.0,meteohub,2013-02-07 12:14:00,
2013-02-07 07:20:00,12.7,7.5,30.51,WNW,287,0.0,1.0,79,0.00,,,0.00,9.0,meteohub,2013-02-07 12:20:00,
2013-02-07 07:25:00,12.7,7.5,30.52,WNW,287,0.0,0.0,79,0.00,,,0.00,12.0,meteohub,2013-02-07 12:25:00,
2013-02-07 07:31:00,12.7,7.5,30.52,WNW,287,0.0,0.0,79,0.00,,,0.00,19.0,meteohub,2013-02-07 12:31:00,
2013-02-07 07:36:00,12.7,7.5,30.52,WNW,287,1.0,0.0,79,0.00,,,0.00,19.0,meteohub,2013-02-07 12:36:00,
2013-02-07 07:41:00,12.7,7.5,30.52,WNW,287,0.0,1.0,79,0.00,,,0.00,37.0,meteohub,2013-02-07 12:41:00,
2013-02-07 07:47:00,12.7,7.5,30.52,WNW,287,0.0,1.0,79,0.00,,,0.00,25.0,meteohub,2013-02-07 12:47:00,
2013-02-07 07:52:00,12.9,7.3,30.53,WNW,288,0.0,1.0,78,0.00,,,0.00,32.0,meteohub,2013-02-07 12:52:00,
2013-02-07 07:57:00,13.1,7.5,30.53,WNW,288,0.0,2.0,78,0.00,,,0.00,26.0,meteohub,2013-02-07 12:57:00,
2013-02-07 08:02:00,13.3,7.3,30.53,WNW,288,0.0,2.0,77,0.00,,,0.00,51.0,meteohub,2013-02-07 13:02:00,
2013-02-07 08:07:00,13.6,7.2,30.53,WNW,288,0.0,2.0,75,0.00,,,0.00,67.0,meteohub,2013-02-07 13:07:00,
2013-02-07 08:12:00,14.2,7.3,30.53,East,82,0.0,2.0,74,0.00,,,0.00,49.0,meteohub,2013-02-07 13:12:00,
2013-02-07 08:17:00,14.4,7.3,30.54,East,99,1.0,3.0,73,0.00,,,0.00,72.0,meteohub,2013-02-07 13:17:00,
2013-02-07 08:22:00,14.5,7.2,30.54,East,96,3.0,3.0,72,0.00,,,0.00,77.0,meteohub,2013-02-07 13:22:00,
2013-02-07 08:27:00,14.9,7.0,30.54,ENE,69,2.0,4.0,70,0.00,,,0.00,63.0,meteohub,2013-02-07 13:27:00,
2013-02-07 08:32:00,15.1,6.8,30.54,East,88,1.0,4.0,69,0.00,,,0.00,37.0,meteohub,2013-02-07 13:32:00,
2013-02-07 08:37:00,15.3,6.6,30.55,NNW,345,0.0,4.0,68,0.00,,,0.00,37.0,meteohub,2013-02-07 13:37:00,
2013-02-07 08:42:00,15.3,6.3,30.55,East,79,1.0,4.0,67,0.00,,,0.00,40.0,meteohub,2013-02-07 13:42:00,
2013-02-07 08:47:00,15.4,6.4,30.55,East,94,3.0,4.0,67,0.00,,,0.00,42.0,meteohub,2013-02-07 13:47:00,
2013-02-07 08:52:00,15.4,6.4,30.55,East,94,1.0,4.0,67,0.00,,,0.00,60.0,meteohub,2013-02-07 13:52:00,
2013-02-07 08:57:00,15.8,6.4,30.55,NNE,31,1.0,4.0,66,0.00,,,0.00,54.0,meteohub,2013-02-07 13:57:00,
2013-02-07 09:02:00,16.0,6.3,30.55,NE,49,2.0,4.0,65,0.00,,,0.00,51.0,meteohub,2013-02-07 14:02:00,
2013-02-07 09:07:00,16.2,6.1,30.56,ENE,78,2.0,5.0,64,0.00,,,0.00,49.0,meteohub,2013-02-07 14:07:00,
2013-02-07 09:12:00,16.3,5.9,30.56,East,85,0.0,5.0,63,0.00,,,0.00,118.0,meteohub,2013-02-07 14:12:00,
2013-02-07 09:17:00,16.7,6.3,30.56,ENE,78,2.0,5.0,63,0.00,,,0.00,79.0,meteohub,2013-02-07 14:17:00,
2013-02-07 09:22:00,16.9,5.7,30.56,South,182,2.0,5.0,61,0.00,,,0.00,211.0,meteohub,2013-02-07 14:22:00,
2013-02-07 09:27:00,17.2,6.1,30.56,ENE,70,1.0,4.0,61,0.00,,,0.00,188.0,meteohub,2013-02-07 14:27:00,
2013-02-07 09:33:00,17.6,6.1,30.56,East,98,5.0,5.0,60,0.00,,,0.00,153.0,meteohub,2013-02-07 14:33:00,
2013-02-07 09:38:00,18.0,6.4,30.56,East,85,3.0,6.0,60,0.00,,,0.00,109.0,meteohub,2013-02-07 14:38:00,
2013-02-07 09:43:00,18.1,5.9,30.56,NE,53,0.0,7.0,58,0.00,,,0.00,190.0,meteohub,2013-02-07 14:43:00,
2013-02-07 09:49:00,18.3,6.4,30.56,ENE,63,1.0,7.0,59,0.00,,,0.00,241.0,meteohub,2013-02-07 14:49:00,
2013-02-07 09:54:00,18.9,7.0,30.56,East,97,4.0,7.0,59,0.00,,,0.00,199.0,meteohub,2013-02-07 14:54:00,
2013-02-07 09:59:00,19.0,6.3,30.56,East,84,0.0,7.0,57,0.00,,,0.00,272.0,meteohub,2013-02-07 14:59:00,
2013-02-07 10:05:00,19.2,6.4,30.56,ENE,75,1.0,7.0,57,0.00,,,0.00,258.0,meteohub,2013-02-07 15:05:00,
2013-02-07 10:10:00,19.4,6.6,30.56,ENE,76,0.0,7.0,57,0.00,,,0.00,308.0,meteohub,2013-02-07 15:10:00,
2013-02-07 10:16:00,19.6,6.4,30.56,ESE,108,1.0,4.0,56,0.00,,,0.00,359.0,meteohub,2013-02-07 15:16:00,
2013-02-07 10:21:00,19.9,6.8,30.56,North,355,0.0,4.0,56,0.00,,,0.00,299.0,meteohub,2013-02-07 15:21:00,
2013-02-07 10:26:00,20.1,6.6,30.56,ENE,69,0.0,4.0,55,0.00,,,0.00,297.0,meteohub,2013-02-07 15:26:00,
2013-02-07 10:31:00,20.3,6.8,30.56,ENE,69,0.0,4.0,55,0.00,,,0.00,199.0,meteohub,2013-02-07 15:31:00,
2013-02-07 10:37:00,20.5,6.8,30.56,ESE,120,2.0,7.0,55,0.00,,,0.00,225.0,meteohub,2013-02-07 15:37:00,
2013-02-07 10:42:00,20.7,7.0,30.56,NE,43,1.0,7.0,55,0.00,,,0.00,232.0,meteohub,2013-02-07 15:42:00,
2013-02-07 10:47:00,20.7,7.0,30.56,East,88,3.0,7.0,55,0.00,,,0.00,232.0,meteohub,2013-02-07 15:47:00,
2013-02-07 10:52:00,21.0,7.3,30.56,East,101,1.0,6.0,55,0.00,,,0.00,241.0,meteohub,2013-02-07 15:52:00,
2013-02-07 10:58:00,21.0,7.0,30.55,ENE,66,3.0,7.0,54,0.00,,,0.00,251.0,meteohub,2013-02-07 15:58:00,
2013-02-07 11:03:00,21.2,7.5,30.55,ENE,63,1.0,7.0,55,0.00,,,0.00,251.0,meteohub,2013-02-07 16:03:00,
2013-02-07 11:08:00,21.6,7.5,30.56,East,93,3.0,7.0,54,0.00,,,0.00,248.0,meteohub,2013-02-07 16:08:00,
2013-02-07 11:14:00,21.6,7.5,30.55,ENE,71,2.0,7.0,54,0.00,,,0.00,258.0,meteohub,2013-02-07 16:14:00,
2013-02-07 11:19:00,21.6,7.5,30.55,ENE,76,1.0,7.0,54,0.00,,,0.00,264.0,meteohub,2013-02-07 16:19:00,
2013-02-07 11:24:00,21.9,7.9,30.55,NNE,14,0.0,6.0,54,0.00,,,0.00,272.0,meteohub,2013-02-07 16:24:00,
2013-02-07 11:29:00,21.9,7.3,30.54,East,93,0.0,6.0,53,0.00,,,0.00,272.0,meteohub,2013-02-07 16:29:00,
2013-02-07 11:35:00,22.3,8.2,30.54,SE,128,3.0,6.0,54,0.00,,,0.00,281.0,meteohub,2013-02-07 16:35:00,
2013-02-07 11:40:00,22.3,7.3,30.53,ESE,107,0.0,5.0,52,0.00,,,0.00,281.0,meteohub,2013-02-07 16:40:00,
2013-02-07 11:45:00,22.3,7.3,30.53,ESE,109,2.0,5.0,52,0.00,,,0.00,304.0,meteohub,2013-02-07 16:45:00,
2013-02-07 11:51:00,22.5,7.5,30.53,ENE,77,0.0,5.0,52,0.00,,,0.00,346.0,meteohub,2013-02-07 16:51:00,
2013-02-07 11:56:00,22.6,7.7,30.53,East,99,1.0,5.0,52,0.00,,,0.00,332.0,meteohub,2013-02-07 16:56:00,
2013-02-07 12:01:00,23.2,8.2,30.52,ENE,57,2.0,6.0,52,0.00,,,0.00,327.0,meteohub,2013-02-07 17:01:00,
2013-02-07 12:07:00,23.4,7.9,30.52,NNE,24,0.0,6.0,51,0.00,,,0.00,283.0,meteohub,2013-02-07 17:07:00,
2013-02-07 12:12:00,23.4,7.5,30.52,East,92,4.0,6.0,50,0.00,,,0.00,285.0,meteohub,2013-02-07 17:12:00,
2013-02-07 12:17:00,23.4,7.9,30.52,East,92,1.0,6.0,51,0.00,,,0.00,322.0,meteohub,2013-02-07 17:17:00,
2013-02-07 12:22:00,23.5,8.4,30.51,SW,236,3.0,7.0,52,0.00,,,0.00,346.0,meteohub,2013-02-07 17:22:00,
2013-02-07 12:27:00,24.1,9.0,30.51,East,98,2.0,7.0,52,0.00,,,0.00,341.0,meteohub,2013-02-07 17:27:00,
2013-02-07 12:32:00,24.4,9.0,30.51,NNE,14,2.0,4.0,51,0.00,,,0.00,348.0,meteohub,2013-02-07 17:32:00,
2013-02-07 12:37:00,24.4,8.4,30.51,NW,313,0.0,5.0,50,0.00,,,0.00,345.0,meteohub,2013-02-07 17:37:00,
2013-02-07 12:42:00,24.4,8.1,30.51,North,5,1.0,8.0,49,0.00,,,0.00,401.0,meteohub,2013-02-07 17:42:00,
2013-02-07 12:47:00,24.4,9.0,30.51,East,80,1.0,8.0,51,0.00,,,0.00,343.0,meteohub,2013-02-07 17:47:00,
2013-02-07 12:52:00,24.8,8.8,30.51,East,101,0.0,8.0,50,0.00,,,0.00,332.0,meteohub,2013-02-07 17:52:00,
2013-02-07 12:57:00,25.0,8.6,30.51,NNE,24,1.0,7.0,49,0.00,,,0.00,332.0,meteohub,2013-02-07 17:57:00,
2013-02-07 13:02:00,24.6,8.2,30.51,East,92,2.0,7.0,49,0.00,,,0.00,322.0,meteohub,2013-02-07 18:02:00,
2013-02-07 13:07:00,25.0,8.6,30.51,NNE,28,0.0,7.0,49,0.00,,,0.00,301.0,meteohub,2013-02-07 18:07:00,
2013-02-07 13:12:00,25.0,8.6,30.50,ESE,108,5.0,7.0,49,0.00,,,0.00,320.0,meteohub,2013-02-07 18:12:00,
2013-02-07 13:17:00,25.2,8.6,30.50,East,87,2.0,7.0,49,0.00,,,0.00,322.0,meteohub,2013-02-07 18:17:00,
2013-02-07 13:22:00,25.3,9.3,30.50,ESE,105,2.0,7.0,50,0.00,,,0.00,338.0,meteohub,2013-02-07 18:22:00,
2013-02-07 13:27:00,25.9,9.3,30.49,East,80,0.0,7.0,49,0.00,,,0.00,309.0,meteohub,2013-02-07 18:27:00,
2013-02-07 13:32:00,25.7,8.8,30.49,East,80,0.0,6.0,48,0.00,,,0.00,327.0,meteohub,2013-02-07 18:32:00,
2013-02-07 13:37:00,25.3,7.9,30.49,ESE,104,1.0,6.0,47,0.00,,,0.00,355.0,meteohub,2013-02-07 18:37:00,
2013-02-07 13:42:00,25.9,9.0,30.48,ENE,71,4.0,6.0,48,0.00,,,0.00,373.0,meteohub,2013-02-07 18:42:00,
2013-02-07 13:47:00,25.9,8.4,30.49,East,81,2.0,6.0,47,0.00,,,0.00,466.0,meteohub,2013-02-07 18:47:00,
2013-02-07 13:52:00,26.1,8.6,30.48,NE,51,0.0,7.0,47,0.00,,,0.00,287.0,meteohub,2013-02-07 18:52:00,
2013-02-07 13:57:00,26.1,8.6,30.48,ESE,111,1.0,7.0,47,0.00,,,0.00,221.0,meteohub,2013-02-07 18:57:00,
2013-02-07 14:02:00,25.9,8.4,30.48,NE,46,3.0,9.0,47,0.00,,,0.00,229.0,meteohub,2013-02-07 19:02:00,
2013-02-07 14:07:00,25.9,8.4,30.48,North,11,1.0,9.0,47,0.00,,,0.00,218.0,meteohub,2013-02-07 19:07:00,
2013-02-07 14:12:00,25.5,7.7,30.48,ESE,104,0.0,9.0,46,0.00,,,0.00,186.0,meteohub,2013-02-07 19:12:00,
2013-02-07 14:17:00,25.5,8.1,30.48,East,88,3.0,5.0,47,0.00,,,0.00,204.0,meteohub,2013-02-07 19:17:00,
2013-02-07 14:22:00,25.5,8.1,30.48,NE,50,1.0,5.0,47,0.00,,,0.00,206.0,meteohub,2013-02-07 19:22:00,
2013-02-07 14:28:00,25.5,8.1,30.48,East,81,1.0,6.0,47,0.00,,,0.00,211.0,meteohub,2013-02-07 19:28:00,
2013-02-07 14:33:00,25.5,8.1,30.47,ENE,69,0.0,6.0,47,0.00,,,0.00,199.0,meteohub,2013-02-07 19:33:00,
2013-02-07 14:38:00,25.7,8.2,30.48,East,101,0.0,6.0,47,0.00,,,0.00,190.0,meteohub,2013-02-07 19:38:00,
2013-02-07 14:43:00,25.7,7.7,30.47,East,81,1.0,6.0,46,0.00,,,0.00,179.0,meteohub,2013-02-07 19:43:00,
2013-02-07 14:49:00,25.7,7.7,30.47,NNW,346,0.0,6.0,46,0.00,,,0.00,158.0,meteohub,2013-02-07 19:49:00,
2013-02-07 14:54:00,25.7,7.7,30.47,East,90,1.0,4.0,46,0.00,,,0.00,156.0,meteohub,2013-02-07 19:54:00,
2013-02-07 14:59:00,25.5,7.2,30.47,East,86,1.0,5.0,45,0.00,,,0.00,123.0,meteohub,2013-02-07 19:59:00,
2013-02-07 15:05:00,25.3,7.5,30.47,East,85,1.0,5.0,46,0.00,,,0.00,104.0,meteohub,2013-02-07 20:05:00,
2013-02-07 15:10:00,25.2,7.7,30.47,NE,49,0.0,6.0,47,0.00,,,0.00,120.0,meteohub,2013-02-07 20:10:00,
2013-02-07 15:15:00,25.3,7.9,30.46,East,96,0.0,6.0,47,0.00,,,0.00,84.0,meteohub,2013-02-07 20:15:00,
2013-02-07 15:21:00,25.3,7.5,30.46,NE,49,1.0,6.0,46,0.00,,,0.00,88.0,meteohub,2013-02-07 20:21:00,
2013-02-07 15:26:00,25.3,7.5,30.46,East,100,0.0,5.0,46,0.00,,,0.00,121.0,meteohub,2013-02-07 20:26:00,
2013-02-07 15:31:00,25.2,7.3,30.45,ENE,73,0.0,5.0,46,0.00,,,0.00,100.0,meteohub,2013-02-07 20:31:00,
2013-02-07 15:37:00,25.2,7.7,30.45,East,92,1.0,5.0,47,0.00,,,0.00,81.0,meteohub,2013-02-07 20:37:00,
2013-02-07 15:42:00,25.2,7.3,30.45,NE,46,3.0,5.0,46,0.00,,,0.00,70.0,meteohub,2013-02-07 20:42:00,
2013-02-07 15:47:00,25.2,7.3,30.45,ENE,74,0.0,5.0,46,0.00,,,0.00,107.0,meteohub,2013-02-07 20:47:00,
2013-02-07 15:52:00,25.2,7.7,30.44,NE,53,1.0,5.0,47,0.00,,,0.00,116.0,meteohub,2013-02-07 20:52:00,
2013-02-07 15:57:00,25.3,7.9,30.45,East,95,2.0,6.0,47,0.00,,,0.00,104.0,meteohub,2013-02-07 20:57:00,
2013-02-07 16:02:00,25.5,7.7,30.44,ESE,105,2.0,7.0,46,0.00,,,0.00,86.0,meteohub,2013-02-07 21:02:00,
2013-02-07 16:07:00,25.3,7.5,30.44,East,101,3.0,7.0,46,0.00,,,0.00,62.0,meteohub,2013-02-07 21:07:00,
2013-02-07 16:12:00,25.3,7.5,30.43,ESE,103,3.0,7.0,46,0.00,,,0.00,62.0,meteohub,2013-02-07 21:12:00,
2013-02-07 16:17:00,25.2,7.3,30.43,East,85,0.0,7.0,46,0.00,,,0.00,62.0,meteohub,2013-02-07 21:17:00,
2013-02-07 16:22:00,25.2,7.3,30.43,East,90,0.0,7.0,46,0.00,,,0.00,54.0,meteohub,2013-02-07 21:22:00,
2013-02-07 16:27:00,25.0,7.2,30.43,East,81,2.0,7.0,46,0.00,,,0.00,44.0,meteohub,2013-02-07 21:27:00,
2013-02-07 16:32:00,25.2,7.7,30.43,East,79,0.0,4.0,47,0.00,,,0.00,40.0,meteohub,2013-02-07 21:32:00,
2013-02-07 16:37:00,25.0,7.2,30.44,ENE,68,0.0,4.0,46,0.00,,,0.00,37.0,meteohub,2013-02-07 21:37:00,
2013-02-07 16:42:00,25.0,7.5,30.44,East,92,0.0,3.0,47,0.00,,,0.00,37.0,meteohub,2013-02-07 21:42:00,
2013-02-07 16:47:00,25.0,7.5,30.44,East,101,0.0,3.0,47,0.00,,,0.00,30.0,meteohub,2013-02-07 21:47:00,
2013-02-07 16:52:00,25.0,8.1,30.44,East,98,0.0,4.0,48,0.00,,,0.00,19.0,meteohub,2013-02-07 21:52:00,
2013-02-07 16:57:00,24.8,7.9,30.44,East,83,1.0,4.0,48,0.00,,,0.00,14.0,meteohub,2013-02-07 21:57:00,
2013-02-07 17:03:00,24.8,7.9,30.44,East,84,0.0,4.0,48,0.00,,,0.00,9.0,meteohub,2013-02-07 22:03:00,
2013-02-07 17:08:00,24.6,7.7,30.44,East,84,0.0,4.0,48,0.00,,,0.00,7.0,meteohub,2013-02-07 22:08:00,
2013-02-07 17:13:00,24.6,7.3,30.44,NE,35,0.0,3.0,47,0.00,,,0.00,5.0,meteohub,2013-02-07 22:13:00,
2013-02-07 17:19:00,24.4,7.5,30.44,East,82,1.0,4.0,48,0.00,,,0.00,0.0,meteohub,2013-02-07 22:19:00,
2013-02-07 17:24:00,24.4,7.2,30.44,NNE,22,0.0,4.0,47,0.00,,,0.00,0.0,meteohub,2013-02-07 22:24:00,
2013-02-07 17:29:00,24.3,7.3,30.44,East,86,0.0,4.0,48,0.00,,,0.00,0.0,meteohub,2013-02-07 22:29:00,
2013-02-07 17:35:00,24.1,7.7,30.44,East,86,0.0,4.0,49,0.00,,,0.00,0.0,meteohub,2013-02-07 22:35:00,
2013-02-07 17:40:00,24.1,7.7,30.45,East,80,0.0,2.0,49,0.00,,,0.00,0.0,meteohub,2013-02-07 22:40:00,
2013-02-07 17:45:00,24.1,8.1,30.45,East,80,0.0,3.0,50,0.00,,,0.00,0.0,meteohub,2013-02-07 22:45:00,
2013-02-07 17:50:00,23.9,7.5,30.45,West,275,0.0,3.0,49,0.00,,,0.00,0.0,meteohub,2013-02-07 22:50:00,
2013-02-07 17:56:00,23.7,7.9,30.45,West,275,0.0,2.0,50,0.00,,,0.00,0.0,meteohub,2013-02-07 22:56:00,
2013-02-07 18:01:00,23.7,7.9,30.45,West,275,0.0,2.0,50,0.00,,,0.00,0.0,meteohub,2013-02-07 23:01:00,
2013-02-07 18:06:00,23.7,7.3,30.45,ENE,72,1.0,2.0,49,0.00,,,0.00,0.0,meteohub,2013-02-07 23:06:00,
2013-02-07 18:12:00,23.5,7.7,30.45,East,85,0.0,2.0,50,0.00,,,0.00,0.0,meteohub,2013-02-07 23:12:00,
2013-02-07 18:17:00,23.5,8.1,30.45,ENE,75,0.0,2.0,51,0.00,,,0.00,0.0,meteohub,2013-02-07 23:17:00,
2013-02-07 18:22:00,23.5,7.7,30.45,ENE,75,0.0,2.0,50,0.00,,,0.00,0.0,meteohub,2013-02-07 23:22:00,
2013-02-07 18:27:00,23.5,8.1,30.45,ENE,75,0.0,2.0,51,0.00,,,0.00,0.0,meteohub,2013-02-07 23:27:00,
2013-02-07 18:32:00,23.5,7.7,30.45,ENE,63,1.0,2.0,50,0.00,,,0.00,0.0,meteohub,2013-02-07 23:32:00,
2013-02-07 18:37:00,23.4,7.5,30.45,ENE,63,1.0,1.0,50,0.00,,,0.00,0.0,meteohub,2013-02-07 23:37:00,
2013-02-07 18:42:00,23.4,7.9,30.45,East,89,0.0,2.0,51,0.00,,,0.00,0.0,meteohub,2013-02-07 23:42:00,
2013-02-07 18:47:00,23.4,7.9,30.45,ENE,76,0.0,3.0,51,0.00,,,0.00,0.0,meteohub,2013-02-07 23:47:00,
2013-02-07 18:52:00,23.4,7.9,30.45,ENE,76,0.0,3.0,51,0.00,,,0.00,0.0,meteohub,2013-02-07 23:52:00,
2013-02-07 18:57:00,23.2,7.7,30.44,ESE,103,2.0,2.0,51,0.00,,,0.00,0.0,meteohub,2013-02-07 23:57:00,
2013-02-07 19:02:00,23.2,7.7,30.44,East,83,0.0,3.0,51,0.00,,,0.00,0.0,meteohub,2013-02-08 00:02:00,
2013-02-07 19:07:00,23.2,7.7,30.44,ENE,74,2.0,3.0,51,0.00,,,0.00,0.0,meteohub,2013-02-08 00:07:00,
2013-02-07 19:12:00,23.0,7.5,30.44,NE,40,0.0,4.0,51,0.00,,,0.00,0.0,meteohub,2013-02-08 00:12:00,
2013-02-07 19:17:00,23.0,8.1,30.44,East,80,1.0,4.0,52,0.00,,,0.00,0.0,meteohub,2013-02-08 00:17:00,
2013-02-07 19:22:00,22.8,7.9,30.44,NE,46,0.0,4.0,52,0.00,,,0.00,0.0,meteohub,2013-02-08 00:22:00,
2013-02-07 19:27:00,22.8,7.9,30.44,East,92,0.0,4.0,52,0.00,,,0.00,0.0,meteohub,2013-02-08 00:27:00,
2013-02-07 19:32:00,22.8,7.3,30.44,East,93,0.0,4.0,51,0.00,,,0.00,0.0,meteohub,2013-02-08 00:32:00,
2013-02-07 19:37:00,22.6,7.2,30.44,North,5,0.0,4.0,51,0.00,,,0.00,0.0,meteohub,2013-02-08 00:37:00,
2013-02-07 19:42:00,22.6,7.2,30.44,NNW,347,3.0,3.0,51,0.00,,,0.00,0.0,meteohub,2013-02-08 00:42:00,
2013-02-07 19:47:00,22.6,7.2,30.44,NNE,20,0.0,3.0,51,0.00,,,0.00,0.0,meteohub,2013-02-08 00:47:00,
2013-02-07 19:52:00,22.5,7.5,30.44,East,86,0.0,6.0,52,0.00,,,0.00,0.0,meteohub,2013-02-08 00:52:00,
2013-02-07 19:57:00,22.5,7.9,30.44,East,87,1.0,6.0,53,0.00,,,0.00,0.0,meteohub,2013-02-08 00:57:00,
2013-02-07 20:02:00,22.5,7.5,30.44,East,87,0.0,6.0,52,0.00,,,0.00,0.0,meteohub,2013-02-08 01:02:00,
2013-02-07 20:07:00,22.5,7.5,30.44,NE,49,0.0,6.0,52,0.00,,,0.00,0.0,meteohub,2013-02-08 01:07:00,
2013-02-07 20:12:00,22.3,7.3,30.44,NNW,337,0.0,2.0,52,0.00,,,0.00,0.0,meteohub,2013-02-08 01:12:00,
2013-02-07 20:17:00,22.3,7.3,30.44,NNW,337,0.0,2.0,52,0.00,,,0.00,0.0,meteohub,2013-02-08 01:17:00,
2013-02-07 20:22:00,22.3,7.7,30.43,NNW,348,0.0,2.0,53,0.00,,,0.00,0.0,meteohub,2013-02-08 01:22:00,
2013-02-07 20:27:00,22.3,7.7,30.43,ENE,77,1.0,2.0,53,0.00,,,0.00,0.0,meteohub,2013-02-08 01:27:00,
2013-02-07 20:32:00,22.1,8.1,30.43,East,79,0.0,3.0,54,0.00,,,0.00,0.0,meteohub,2013-02-08 01:32:00,
2013-02-07 20:37:00,22.1,8.1,30.44,East,79,0.0,4.0,54,0.00,,,0.00,0.0,meteohub,2013-02-08 01:37:00,
2013-02-07 20:42:00,21.9,7.3,30.43,East,87,1.0,4.0,53,0.00,,,0.00,0.0,meteohub,2013-02-08 01:42:00,
2013-02-07 20:47:00,21.9,7.3,30.43,East,87,0.0,4.0,53,0.00,,,0.00,0.0,meteohub,2013-02-08 01:47:00,
2013-02-07 20:52:00,21.9,7.9,30.44,East,87,0.0,3.0,54,0.00,,,0.00,0.0,meteohub,2013-02-08 01:52:00,
2013-02-07 20:57:00,21.7,7.7,30.44,East,87,0.0,3.0,54,0.00,,,0.00,0.0,meteohub,2013-02-08 01:57:00,
2013-02-07 21:03:00,21.7,7.7,30.44,East,87,0.0,2.0,54,0.00,,,0.00,0.0,meteohub,2013-02-08 02:03:00,
2013-02-07 21:08:00,21.6,7.9,30.43,East,87,1.0,3.0,55,0.00,,,0.00,0.0,meteohub,2013-02-08 02:08:00,
2013-02-07 21:14:00,21.4,7.3,30.43,East,87,2.0,4.0,54,0.00,,,0.00,0.0,meteohub,2013-02-08 02:14:00,
2013-02-07 21:19:00,21.0,7.3,30.43,East,87,0.0,4.0,55,0.00,,,0.00,0.0,meteohub,2013-02-08 02:19:00,
2013-02-07 21:24:00,21.0,7.3,30.43,East,87,0.0,4.0,55,0.00,,,0.00,0.0,meteohub,2013-02-08 02:24:00,
2013-02-07 21:29:00,21.0,7.3,30.43,East,87,0.0,3.0,55,0.00,,,0.00,0.0,meteohub,2013-02-08 02:29:00,
2013-02-07 21:35:00,20.8,7.2,30.43,East,87,0.0,1.0,55,0.00,,,0.00,0.0,meteohub,2013-02-08 02:35:00,
2013-02-07 21:40:00,20.8,7.7,30.43,East,87,0.0,1.0,56,0.00,,,0.00,0.0,meteohub,2013-02-08 02:40:00,
2013-02-07 21:45:00,20.8,7.7,30.43,East,87,0.0,1.0,56,0.00,,,0.00,0.0,meteohub,2013-02-08 02:45:00,
2013-02-07 21:51:00,20.7,7.9,30.42,East,87,0.0,0.0,57,0.00,,,0.00,0.0,meteohub,2013-02-08 02:51:00,
2013-02-07 21:56:00,20.7,7.9,30.43,East,87,0.0,1.0,57,0.00,,,0.00,0.0,meteohub,2013-02-08 02:56:00,
2013-02-07 22:01:00,20.5,7.7,30.41,East,87,0.0,1.0,57,0.00,,,0.00,0.0,meteohub,2013-02-08 03:01:00,
2013-02-07 22:07:00,20.3,7.5,30.42,East,87,0.0,1.0,57,0.00,,,0.00,0.0,meteohub,2013-02-08 03:07:00,
2013-02-07 22:12:00,20.1,8.1,30.41,East,87,0.0,0.0,59,0.00,,,0.00,0.0,meteohub,2013-02-08 03:12:00,
2013-02-07 22:17:00,19.9,7.9,30.42,East,87,0.0,0.0,59,0.00,,,0.00,0.0,meteohub,2013-02-08 03:17:00,
2013-02-07 22:22:00,19.9,7.9,30.42,East,87,0.0,0.0,59,0.00,,,0.00,0.0,meteohub,2013-02-08 03:22:00,
2013-02-07 22:27:00,19.8,8.1,30.41,East,87,0.0,0.0,60,0.00,,,0.00,0.0,meteohub,2013-02-08 03:27:00,
2013-02-07 22:32:00,19.6,8.6,30.42,East,87,0.0,0.0,62,0.00,,,0.00,0.0,meteohub,2013-02-08 03:32:00,
2013-02-07 22:37:00,19.6,8.6,30.42,East,87,0.0,0.0,62,0.00,,,0.00,0.0,meteohub,2013-02-08 03:37:00,
2013-02-07 22:42:00,19.2,8.8,30.41,East,87,0.0,0.0,63,0.00,,,0.00,0.0,meteohub,2013-02-08 03:42:00,
2013-02-07 22:47:00,19.2,8.8,30.41,East,87,0.0,0.0,63,0.00,,,0.00,0.0,meteohub,2013-02-08 03:47:00,
2013-02-07 22:52:00,19.0,9.0,30.41,East,87,0.0,0.0,64,0.00,,,0.00,0.0,meteohub,2013-02-08 03:52:00,
2013-02-07 22:58:00,19.0,9.1,30.41,East,87,0.0,1.0,65,0.00,,,0.00,0.0,meteohub,2013-02-08 03:58:00,
2013-02-07 23:03:00,19.0,9.0,30.40,East,87,1.0,2.0,64,0.00,,,0.00,0.0,meteohub,2013-02-08 04:03:00,
2013-02-07 23:08:00,19.0,9.0,30.41,East,87,0.0,3.0,64,0.00,,,0.00,0.0,meteohub,2013-02-08 04:08:00,
2013-02-07 23:13:00,19.0,9.0,30.41,East,88,0.0,3.0,64,0.00,,,0.00,0.0,meteohub,2013-02-08 04:13:00,
2013-02-07 23:18:00,19.0,8.6,30.40,East,87,0.0,3.0,63,0.00,,,0.00,0.0,meteohub,2013-02-08 04:18:00,
2013-02-07 23:24:00,19.2,8.8,30.40,East,90,1.0,2.0,63,0.00,,,0.00,0.0,meteohub,2013-02-08 04:24:00,
2013-02-07 23:29:00,19.4,8.6,30.40,ESE,115,1.0,4.0,62,0.00,,,0.00,0.0,meteohub,2013-02-08 04:29:00,
2013-02-07 23:34:00,19.6,8.6,30.40,East,94,1.0,4.0,62,0.00,,,0.00,0.0,meteohub,2013-02-08 04:34:00,
2013-02-07 23:39:00,19.6,8.6,30.40,East,93,1.0,4.0,62,0.00,,,0.00,0.0,meteohub,2013-02-08 04:39:00,
2013-02-07 23:45:00,19.6,8.6,30.40,East,92,1.0,3.0,62,0.00,,,0.00,0.0,meteohub,2013-02-08 04:45:00,
2013-02-07 23:50:00,19.8,8.8,30.39,East,93,3.0,4.0,62,0.00,,,0.00,0.0,meteohub,2013-02-08 04:50:00,
2013-02-07 23:55:00,19.8,8.8,30.40,ENE,69,1.0,4.0,62,0.00,,,0.00,0.0,meteohub,2013-02-08 04:55:00,